Regional Weather Roundup
Issued by NWS Little Rock, AR

Home | Current Version | Previous Version | Graphics & Text | Print | Product List | Glossary On
Versions: 1 2 3 4 5 6 7 8 9 10 11 12 13 14 15 16 17 18 19 20 21 22 23 24 25 26 27
000
ASUS44 KLZK 300605
RWRLZK

WEATHER ROUNDUP FOR ARKANSAS
NATIONAL WEATHER SERVICE LITTLE ROCK AR
100 AM CDT SAT JUL 30 2016

NOTE: "FAIR" INDICATES FEW OR NO CLOUDS BELOW 12,000 FEET WITH NO
SIGNIFICANT WEATHER AND/OR OBSTRUCTIONS TO VISIBILITY.

ARZ001-003-010-029-300700-
NORTHWEST ARKANSAS

CITY           SKY/WX    TMP DP  RH WIND       PRES   REMARKS
FAYETTEVILLE   PTCLDY    72  72 100 CALM      30.02R
6HR MIN TEMP:  71; 6HR MAX TEMP:  83;

FORT SMITH     MOCLDY    76  69  79 CALM      29.98R
6HR MIN TEMP:  76; 6HR MAX TEMP:  88;

HARRISON       MOCLDY    70  69  97 W3        30.02S
6HR MIN TEMP:  70; 6HR MAX TEMP:  77;

BENTONVILLE    CLEAR     72  66  83 CALM      30.02S
6HR MIN TEMP:  72; 6HR MAX TEMP:  84;

ROGERS         CLEAR     73  70  90 CALM      30.02S
6HR MIN TEMP:  71; 6HR MAX TEMP:  83;

SILOAM SPGS    CLEAR     70  63  78 SE7       30.03S
6HR MIN TEMP:  70; 6HR MAX TEMP:  82;

HIGHFILL       CLEAR     72  71  97 CALM      30.01S
6HR MIN TEMP:  72; 6HR MAX TEMP:  86;

$$

ARZ004-005-016-300700-
NORTH CENTRAL ARKANSAS

CITY           SKY/WX    TMP DP  RH WIND       PRES   REMARKS
BATESVILLE     CLOUDY    72  70  94 CALM      29.98S
6HR MIN TEMP:  72; 6HR MAX TEMP:  73;

FLIPPIN        CLOUDY    72  66  83 CALM      29.97S
6HR MIN TEMP:  72; 6HR MAX TEMP:  77;

MTN HOME       CLOUDY    70  70 100 CALM      29.99S
6HR MIN TEMP:  70; 6HR MAX TEMP:  75;

$$

ARZ040-041-300700-
WEST CENTRAL ARKANSAS

CITY           SKY/WX    TMP DP  RH WIND       PRES   REMARKS
MENA             N/A    N/A N/A N/A MISG        N/A
MOUNT IDA      CLOUDY    73  72  96 CALM      29.97F
6HR MIN TEMP:  73; 6HR MAX TEMP:  83; 6HR PCP:  0.37;

$$

ARZ009-017-025-026-028-300700-
NORTHEAST ARKANSAS

CITY           SKY/WX    TMP DP  RH WIND       PRES   REMARKS
CORNING          N/A     72  72 100 SW3       29.98S
JONESBORO      CLOUDY    72  70  93 CALM      29.98R
6HR MIN TEMP:  72; 6HR MAX TEMP:  77;

NEWPORT        CLOUDY    72  72 100 CALM      29.99S
6HR MIN TEMP:  72; 6HR MAX TEMP:  77;

WALNUT RIDGE   CLOUDY    72  70  94 N3        29.97R
6HR MIN TEMP:  72; 6HR MAX TEMP:  73;

BLYTHEVILLE    PTCLDY    72  70  93 W5        29.97R
6HR MIN TEMP:  72; 6HR MAX TEMP:  75; 6HR PCP: TRACE;

$$

ARZ022-023-033-042-044-300700-
CENTRAL ARKANSAS

CITY           SKY/WX    TMP DP  RH WIND       PRES   REMARKS
LITTLE ROCK    CLOUDY    75  71  87 SW5       29.99R
6HR MIN TEMP:  75; 6HR MAX TEMP:  80; 6HR PCP: TRACE;

N LITTLE ROCK    N/A     73  71  94 S3        29.96R
6HR MIN TEMP:  73; 6HR MAX TEMP:  76;

JACKSONVILLE   CLOUDY    73  73 100 MISG      29.97F
6HR MIN TEMP:  74; 6HR MAX TEMP:  77; 6HR PCP: TRACE;

SEARCY         CLOUDY    72  72 100 CALM      30.09F
6HR MIN TEMP:  71; 6HR MAX TEMP:  75;

HOT SPRINGS    MOCLDY    73  71  93 S6        29.99F
6HR MIN TEMP:  73; 6HR MAX TEMP:  87; 6HR PCP:  0.07;

RUSSELLVILLE   CLOUDY    75  74  96 CALM      29.97S
6HR MIN TEMP:  74; 6HR MAX TEMP:  81; 6HR PCP:  0.03;

$$

ARZ036-300700-
EAST ARKANSAS

CITY           SKY/WX    TMP DP  RH WIND       PRES   REMARKS
WEST MEMPHIS   MOCLDY    72  71  97 W3        29.96F
6HR MIN TEMP:  72; 6HR MAX TEMP:  73;

$$

ARZ050-053-066-070-073-300700-
SOUTHWEST ARKANSAS

CITY           SKY/WX    TMP DP  RH WIND       PRES   REMARKS
ARKADELPHIA    MOCLDY    72  71  97 CALM      30.01R
6HR MIN TEMP:  71; 6HR MAX TEMP:  85; 6HR PCP:  1.62;

CAMDEN         CLOUDY    72  70  94 CALM      29.97F
TEXARKANA      CLOUDY    73  71  93 CALM      29.99F
6HR MIN TEMP:  72; 6HR MAX TEMP:  90; 6HR PCP:  0.14;

EL DORADO      CLOUDY    74  73  97 SW5       30.01S
6HR MIN TEMP:  74; 6HR MAX TEMP:  89; 6HR PCP:  0.20;

DE QUEEN       CLOUDY    71  71 100 CALM      29.98S
6HR MIN TEMP:  71; 6HR MAX TEMP:  91;

$$

ARZ056-057-069-300700-
SOUTHEAST ARKANSAS

CITY           SKY/WX    TMP DP  RH WIND       PRES   REMARKS
PINE BLUFF     LGT RAIN  74  72  93 W6        29.97S
6HR MIN TEMP:  72; 6HR MAX TEMP:  74; 6HR PCP: TRACE;

STUTTGART      CLOUDY    73  70  88 CALM      29.97S
6HR MIN TEMP:  73; 6HR MAX TEMP:  75; 6HR PCP:  0.01;

MONTICELLO     CLEAR     76  73  91 SE3       29.98F
6HR MIN TEMP:  75; 6HR MAX TEMP:  91; 6HR PCP:  0.64;


$$






USA.gov is the U.S. government's official web portal to all federal, state and local government web resources and services.